Location: Arborea
(39.7744°N, 8.5819°E)
Time: 20:33:13
(UTC+00:00)

BUGSAT 1 - Visible Passes

Search period start: 24 May 2024 00:00
Search period end: 03 June 2024 00:00
Orbit: 531 x 580 km, 98.1° (Epoch: 23 May)

Date Brightness Start Highest point End Pass type
(mag) Time Alt. Az. Time Alt. Az. Time Alt. Az.
25 May ? 20:32:15 10° W 20:32:45 10° W 20:33:16 10° W visible
26 May ? 20:28:51 10° WSW 20:30:05 11° W 20:31:17 10° WNW visible
27 May ? 20:25:44 10° WSW 20:27:23 12° W 20:29:01 10° WNW visible
28 May ? 20:22:42 10° WSW 20:24:39 13° W 20:26:38 10° WNW visible
29 May ? 20:19:43 10° SW 20:21:56 14° W 20:24:09 10° WNW visible
30 May ? 20:16:46 10° SW 20:19:12 15° W 20:21:38 10° WNW visible
31 May ? 20:13:49 10° SW 20:16:26 16° W 20:19:05 10° NW visible
01 Jun ? 20:10:52 10° SW 20:13:41 18° W 20:16:29 10° NW visible
02 Jun ? 20:07:56 10° SW 20:10:54 19° W 20:13:51 10° NW visible
